When you browse on this site, cookies collect data to enhance your experience and personalize the content and advertising you see.
Visit our Privacy Policy to learn more. By continuing to use the site, you agree to this use of cookies and data.
  • In Hungary
  • List of Countries
  • For 7 days
  • Water Temperature
  • Weather Map
  • News
  • Weather Widgets
  • user-avatar
    Login

    Hourly Weather Davydov Konec

    Today, 23 February, Sunday

    Time Temperature Precipitation Wind Pressure Humidity
    00:00 +1°C° 0.1 mm 8 mps 730 mmHg 81%
    01:00 0°C° 0.1 mm 8 mps 730 mmHg 76%
    02:00 0°C° 0 mm 7 mps 730 mmHg 70%
    03:00 0°C° 0 mm 7 mps 730 mmHg 75%
    04:00 -1°C° 0 mm 7 mps 730 mmHg 80%
    05:00 -1°C° 0 mm 8 mps 730 mmHg 85%
    06:00 -1°C° 0 mm 7 mps 731 mmHg 84%
    07:00 -1°C° 0 mm 7 mps 731 mmHg 82%
    08:00 -1°C° 0 mm 7 mps 731 mmHg 83%
    09:00 -1°C° 0.1 mm 7 mps 731 mmHg 84%
    10:00 -1°C° 0.1 mm 7 mps 731 mmHg 85%
    11:00 -1°C° 0.1 mm 7 mps 731 mmHg 86%
    12:00 -1°C° 0.4 mm 7 mps 731 mmHg 89%
    13:00 -1°C° 0.4 mm 7 mps 731 mmHg 91%
    14:00 -1°C° 0 mm 7 mps 730 mmHg 94%
    15:00 0°C° 0.3 mm 7 mps 730 mmHg 92%
    16:00 0°C° 0.3 mm 7 mps 730 mmHg 90%
    17:00 0°C° 0.3 mm 7 mps 730 mmHg 88%
    18:00 0°C° 0 mm 7 mps 730 mmHg 85%
    19:00 +1°C° 0 mm 6 mps 730 mmHg 82%
    20:00 +1°C° 0 mm 6 mps 731 mmHg 78%
    21:00 +1°C° 0 mm 5 mps 731 mmHg 80%
    22:00 +1°C° 0 mm 5 mps 730 mmHg 82%
    23:00 0°C° 0 mm 4 mps 730 mmHg 84%

    Tomorrow, 24 February, Monday

    Time Temperature Precipitation Wind Pressure Humidity
    00:00 0°C° 0 mm 4 mps 731 mmHg 86%
    01:00 0°C° 0 mm 4 mps 731 mmHg 88%
    02:00 0°C° 0 mm 4 mps 731 mmHg 89%
    03:00 -1°C° 0 mm 4 mps 731 mmHg 90%
    04:00 -1°C° 0 mm 4 mps 732 mmHg 90%
    05:00 -2°C° 0 mm 4 mps 732 mmHg 91%
    06:00 -2°C° 0 mm 4 mps 733 mmHg 88%
    07:00 -2°C° 0 mm 4 mps 733 mmHg 85%
    08:00 -2°C° 0 mm 4 mps 734 mmHg 82%
    09:00 -1°C° 0 mm 5 mps 735 mmHg 76%
    10:00 -2°C° 0 mm 6 mps 736 mmHg 69%
    11:00 -1°C° 0 mm 6 mps 736 mmHg 63%
    12:00 -1°C° 0 mm 6 mps 737 mmHg 60%
    13:00 -1°C° 0 mm 6 mps 737 mmHg 57%
    14:00 0°C° 0 mm 7 mps 738 mmHg 54%
    15:00 -1°C° 0 mm 6 mps 739 mmHg 57%
    16:00 -1°C° 0 mm 6 mps 739 mmHg 60%
    17:00 -1°C° 0 mm 5 mps 739 mmHg 62%
    18:00 -1°C° 0 mm 5 mps 740 mmHg 65%
    19:00 -2°C° 0 mm 5 mps 740 mmHg 68%
    20:00 -2°C° 0 mm 5 mps 740 mmHg 71%
    21:00 -2°C° 0 mm 5 mps 741 mmHg 72%
    22:00 -2°C° 0 mm 5 mps 741 mmHg 72%
    23:00 -3°C° 0 mm 4 mps 741 mmHg 73%

    Day after tomorrow, 25 February, Tuesday

    Time Temperature Precipitation Wind Pressure Humidity
    00:00 -3°C° 0 mm 4 mps 741 mmHg 75%
    01:00 -2°C° 0 mm 3 mps 741 mmHg 77%
    02:00 -2°C° 0 mm 3 mps 741 mmHg 79%
    03:00 -2°C° 0 mm 3 mps 741 mmHg 81%
    04:00 -2°C° 0 mm 3 mps 741 mmHg 83%
    05:00 -2°C° 0 mm 2 mps 740 mmHg 84%
    06:00 -2°C° 0 mm 2 mps 740 mmHg 83%
    07:00 -2°C° 0 mm 2 mps 740 mmHg 82%
    08:00 -2°C° 0 mm 2 mps 739 mmHg 81%
    09:00 -1°C° 0 mm 2 mps 739 mmHg 73%
    10:00 0°C° 0 mm 3 mps 738 mmHg 66%
    11:00 +1°C° 0 mm 3 mps 738 mmHg 58%
    12:00 +1°C° 0 mm 3 mps 737 mmHg 57%
    13:00 0°C° 0 mm 4 mps 737 mmHg 56%
    14:00 +1°C° 0 mm 4 mps 736 mmHg 54%
    15:00 0°C° 0 mm 4 mps 735 mmHg 63%
    16:00 -1°C° 0 mm 4 mps 734 mmHg 72%
    17:00 -1°C° 0 mm 4 mps 733 mmHg 80%
    18:00 -1°C° 0.5 mm 4 mps 732 mmHg 86%
    19:00 -2°C° 0.5 mm 5 mps 732 mmHg 91%
    20:00 -2°C° 0.5 mm 5 mps 731 mmHg 96%
    21:00 -2°C° 0.4 mm 5 mps 730 mmHg 96%
    22:00 -1°C° 0.4 mm 4 mps 729 mmHg 96%
    23:00 0°C° 0.4 mm 3 mps 729 mmHg 97%

    26 February, Wednesday

    Time Temperature Precipitation Wind Pressure Humidity
    00:00 -1°C° 0.3 mm 4 mps 728 mmHg 95%
    01:00 -1°C° 0.3 mm 4 mps 728 mmHg 93%
    02:00 -1°C° 0.3 mm 4 mps 728 mmHg 91%
    03:00 -1°C° 0 mm 4 mps 728 mmHg 90%
    04:00 0°C° 0 mm 3 mps 727 mmHg 89%
    05:00 0°C° 0 mm 3 mps 727 mmHg 88%
    06:00 -1°C° 0 mm 4 mps 727 mmHg 86%
    07:00 -1°C° 0 mm 4 mps 727 mmHg 85%
    08:00 -1°C° 0 mm 4 mps 727 mmHg 83%
    09:00 -1°C° 0.4 mm 4 mps 726 mmHg 87%
    10:00 -1°C° 0.4 mm 5 mps 726 mmHg 90%
    11:00 -1°C° 0.4 mm 5 mps 726 mmHg 94%
    12:00 -1°C° 0.2 mm 5 mps 726 mmHg 93%
    13:00 -1°C° 0.2 mm 5 mps 727 mmHg 93%
    14:00 -1°C° 0.2 mm 5 mps 727 mmHg 92%
    15:00 -1°C° 0.1 mm 5 mps 727 mmHg 93%
    16:00 -1°C° 0.1 mm 5 mps 727 mmHg 94%
    17:00 -1°C° 0.1 mm 5 mps 727 mmHg 95%
    18:00 -1°C° 0.2 mm 4 mps 727 mmHg 96%
    19:00 0°C° 0.2 mm 3 mps 727 mmHg 96%
    20:00 0°C° 0.2 mm 3 mps 728 mmHg 97%
    21:00 -1°C° 0.3 mm 3 mps 728 mmHg 97%
    22:00 -1°C° 0.3 mm 3 mps 729 mmHg 96%
    23:00 -1°C° 0.3 mm 3 mps 729 mmHg 96%

    27 February, Thursday

    Time Temperature Precipitation Wind Pressure Humidity
    00:00 -3°C° 0.1 mm 4 mps 730 mmHg 94%
    01:00 -4°C° 0.1 mm 4 mps 731 mmHg 92%
    02:00 -6°C° 0.1 mm 5 mps 731 mmHg 91%
    03:00 -6°C° 0.1 mm 5 mps 732 mmHg 91%
    04:00 -6°C° 0.1 mm 5 mps 733 mmHg 91%
    05:00 -6°C° 0.1 mm 5 mps 733 mmHg 91%
    06:00 -7°C° 0.1 mm 5 mps 734 mmHg 90%
    07:00 -7°C° 0.1 mm 4 mps 735 mmHg 89%
    08:00 -7°C° 0.1 mm 4 mps 735 mmHg 88%
    09:00 -5°C° 0.1 mm 4 mps 736 mmHg 85%
    10:00 -5°C° 0.1 mm 4 mps 737 mmHg 81%
    11:00 -4°C° 0.1 mm 4 mps 737 mmHg 78%
    12:00 -4°C° 0.1 mm 4 mps 737 mmHg 76%
    13:00 -4°C° 0.1 mm 3 mps 738 mmHg 73%
    14:00 -2°C° 0.1 mm 3 mps 738 mmHg 71%
    15:00 -4°C° 0.1 mm 3 mps 738 mmHg 73%
    16:00 -4°C° 0.1 mm 3 mps 738 mmHg 75%
    17:00 -5°C° 0.1 mm 3 mps 738 mmHg 77%
    18:00 -5°C° 0 mm 3 mps 738 mmHg 80%
    19:00 -5°C° 0 mm 2 mps 738 mmHg 84%
    20:00 -5°C° 0 mm 2 mps 739 mmHg 87%
    21:00 -6°C° 0 mm 2 mps 738 mmHg 89%
    22:00 -6°C° 0 mm 2 mps 738 mmHg 90%
    23:00 -6°C° 0 mm 2 mps 738 mmHg 92%

    28 February, Friday

    Time Temperature Precipitation Wind Pressure Humidity
    00:00 -6°C° 0 mm 2 mps 738 mmHg 91%
    01:00 -7°C° 0 mm 3 mps 738 mmHg 90%
    02:00 -7°C° 0 mm 3 mps 738 mmHg 88%
    03:00 -7°C° 0 mm 3 mps 738 mmHg 88%
    04:00 -7°C° 0 mm 3 mps 738 mmHg 87%
    05:00 -7°C° 0 mm 3 mps 737 mmHg 86%
    06:00 -7°C° 0 mm 3 mps 737 mmHg 86%
    07:00 -7°C° 0 mm 3 mps 737 mmHg 86%
    08:00 -7°C° 0 mm 3 mps 738 mmHg 85%
    09:00 -8°C° 0 mm 4 mps 737 mmHg 80%
    10:00 -7°C° 0 mm 4 mps 737 mmHg 75%
    11:00 -5°C° 0 mm 4 mps 737 mmHg 69%
    12:00 -5°C° 0 mm 4 mps 737 mmHg 67%
    13:00 -5°C° 0 mm 5 mps 737 mmHg 65%
    14:00 -5°C° 0 mm 5 mps 737 mmHg 62%
    15:00 -5°C° 0 mm 5 mps 737 mmHg 64%
    16:00 -5°C° 0 mm 5 mps 737 mmHg 66%
    17:00 -5°C° 0 mm 4 mps 737 mmHg 68%
    18:00 -5°C° 0 mm 4 mps 738 mmHg 71%
    19:00 -7°C° 0 mm 5 mps 738 mmHg 73%
    20:00 -7°C° 0 mm 5 mps 738 mmHg 75%
    21:00 -7°C° 0 mm 5 mps 738 mmHg 76%
    22:00 -7°C° 0 mm 4 mps 738 mmHg 77%
    23:00 -7°C° 0 mm 4 mps 738 mmHg 78%
    Show more